Location: Bad Salzschlirf
(50.3750°N, 9.3000°E)
Time: 03:10:59
(UTC+02:00)

ISS - Pass Details

Date: 07 July 2025
Orbit: 413 x 417 km, 51.6° (Epoch: 12 July)

Event Time Altitude Azimuth Distance (km) Brightness Sun altitude
Rises 23:35:37 0° 233° (SW) 2,343 -0.1 -13.0°
Reaches altitude 10° 23:37:45 10° 227° (SW) 1,484 -1.1 -13.2°
Maximum altitude 23:40:57 45° 153° (SSE) 576 -3.5 -13.4°
Drops below altitude 10° 23:44:10 10° 79° (E) 1,493 -1.1 -13.6°
Sets 23:46:19 0° 73° (ENE) 2,360 0.0 -13.8°
